QPF
0.00 0.00 0.01 0.01 0.01 0.01 0.01 0.01 0.01 0.01 0.01 0.02 0.01 0.01 0.01 0.01 0.01 0.01 0.01 0.01 0.01 0.01 0.01 0.01 0.01 0.01 0.00 0.00 0.00 0.00 0.00 0.00 0.00 0.00 0.00 0.00 0.01 0.01 0.00 0.00 0.00 0.00 0.00
0.00 0.00 0.01 0.01 0.01 0.01 0.01 0.01 0.01 0.01 0.01 0.01 0.01 0.01 0.01 0.01 0.01 0.01 0.01 0.01 0.01 0.01 0.01 0.01 0.01 0.01 0.00 0.00 0.00 0.00 0.00 0.00 0.00 0.00 0.00 0.00 0.00 0.00 0.00 0.00 0.00 0.00 0.00
0.00 0.00 0.01 0.01 0.01 0.01 0.01 0.01 0.01 0.01 0.01 0.01 0.01 0.01 0.01 0.01 0.01 0.01 0.01 0.01 0.01 0.01 0.01 0.01 0.00 0.00 0.00 0.00 0.00 0.00 0.00 0.00 0.00 0.00 0.00 0.00 0.00 0.01 0.01 0.01 0.01 0.01 0.01
0.00 0.00 0.00 0.01 0.01 0.01 0.01 0.01 0.01 0.01 0.01 0.01 0.01 0.01 0.01 0.01 0.01 0.01 0.01 0.01 0.01 0.01 0.01 0.00 0.00 0.00 0.00 0.00 0.00 0.00 0.00 0.00 0.00 0.00 0.00 0.00 0.00 0.01 0.01 0.01 0.01 0.01 0.01
0.00 0.00 0.01 0.01 0.01 0.01 0.01 0.01 0.01 0.01 0.01 0.01 0.01 0.01 0.01 0.01 0.01 0.01 0.01 0.01 0.01 0.00 0.00 0.00 0.00 0.00 0.00 0.00 0.00 0.00 0.00 0.00 0.00 0.00 0.00 0.00 0.00 0.01 0.01 0.01 0.01 0.01 0.01
0.00 0.00 0.01 0.01 0.01 0.01 0.01 0.01 0.01 0.01 0.01 0.01 0.01 0.01 0.01 0.01 0.01 0.01 0.01 0.00 0.00 0.00 0.00 0.00 0.00 0.00 0.00 0.00 0.00 0.00 0.00 0.00 0.00 0.00 0.00 0.00 0.00 0.01 0.01 0.01 0.01 0.02 0.02
0.00 0.00 0.01 0.01 0.01 0.01 0.01 0.01 0.01 0.01 0.01 0.01 0.01 0.01 0.01 0.01 0.01 0.00 0.00 0.00 0.00 0.00 0.00 0.00 0.00 0.00 0.00 0.00 0.00 0.00 0.00 0.00 0.00 0.00 0.00 0.00 0.00 0.01 0.01 0.01 0.01 0.02 0.02
0.00 0.00 0.01 0.01 0.02 0.01 0.01 0.01 0.01 0.01 0.01 0.01 0.01 0.01 0.01 0.01 0.01 0.00 0.00 0.00 0.00 0.00 0.00 0.00 0.00 0.00 0.00 0.00 0.00 0.00 0.00 0.00 0.00 0.00 0.00 0.00 0.01 0.02 0.02 0.02 0.02 0.02 0.02
0.00 0.00 0.01 0.01 0.01 0.01 0.01 0.01 0.01 0.01 0.01 0.01 0.01 0.01 0.01 0.00 0.00 0.00 0.00 0.00 0.00 0.00 0.00 0.00 0.00 0.00 0.00 0.00 0.00 0.00 0.00 0.00 0.00 0.00 0.00 0.00 0.01 0.02 0.03 0.02 0.01 0.01 0.01
0.00 0.00 0.01 0.01 0.01 0.01 0.01 0.01 0.01 0.01 0.01 0.01 0.01 0.01 0.00 0.00 0.01 0.01 0.00 0.00 0.00 0.00 0.00 0.00 0.00 0.00 0.00 0.00 0.00 0.00 0.00 0.00 0.00 0.00 0.00 0.00 0.01 0.02 0.02 0.02 0.01 0.01 0.01
0.00 0.00 0.01 0.01 0.01 0.01 0.01 0.01 0.01 0.01 0.01 0.01 0.01 0.00 0.00 0.00 0.00 0.00 0.00 0.00 0.00 0.00 0.00 0.00 0.00 0.00 0.00 0.00 0.00 0.00 0.00 0.00 0.00 0.00 0.00 0.00 0.01 0.01 0.01 0.01 0.01 0.00 0.00
0.00 0.01 0.01 0.01 0.01 0.01 0.01 0.01 0.01 0.01 0.01 0.00 0.00 0.00 0.00 0.00 0.00 0.00 0.00 0.00 0.00 0.00 0.00 0.00 0.00 0.00 0.00 0.00 0.00 0.00 0.00 0.00 0.00 0.00 0.00 0.00 0.00 0.01 0.01 0.00 0.00 0.00 0.00
0.00 0.01 0.01 0.01 0.01 0.01 0.01 0.01 0.00 0.00 0.00 0.00 0.00 0.00 0.00 0.00 0.00 0.00 0.00 0.00 0.00 0.00 0.00 0.00 0.00 0.00 0.00 0.00 0.00 0.00 0.00 0.00 0.00 0.00 0.00 0.00 0.00 0.01 0.01 0.00 0.00 0.00 0.00
0.00 0.01 0.01 0.01 0.01 0.01 0.01 0.00 0.00 0.00 0.00 0.00 0.00 0.00 0.00 0.00 0.00 0.00 0.00 0.00 0.00 0.00 0.00 0.00 0.00 0.00 0.00 0.00 0.00 0.00 0.00 0.00 0.00 0.00 0.00 0.00 0.00 0.00 0.00 0.00 0.00 0.00 0.00
0.00 0.01 0.01 0.02 0.01 0.01 0.01 0.00 0.00 0.00 0.00 0.00 0.00 0.00 0.00 0.00 0.00 0.00 0.00 0.00 0.00 0.00 0.00 0.00 0.00 0.00 0.00 0.00 0.00 0.00 0.00 0.00 0.00 0.00 0.00 0.00 0.00 0.00 0.00 0.00 0.00 0.00 0.00
0.01 0.01 0.01 0.01 0.02 0.01 0.01 0.00 0.00 0.00 0.00 0.00 0.00 0.00 0.00 0.00 0.00 0.00 0.00 0.00 0.00 0.00 0.00 0.00 0.00 0.00 0.00 0.00 0.00 0.00 0.00 0.00 0.00 0.00 0.00 0.00 0.00 0.00 0.00 0.00 0.00 0.00 0.00
0.00 0.01 0.01 0.01 0.01 0.01 0.01 0.00 0.00 0.00 0.00 0.00 0.00 0.00 0.00 0.00 0.00 0.00 0.00 0.00 0.00 0.00 0.00 0.00 0.00 0.00 0.00 0.00 0.00 0.00 0.00 0.00 0.00 0.00 0.00 0.00 0.00 0.00 0.00 0.00 0.00 0.00 0.00
0.01 0.01 0.02 0.01 0.01 0.01 0.01 0.01 0.00 0.00 0.00 0.00 0.00 0.00 0.00 0.00 0.00 0.00 0.00 0.00 0.00 0.00 0.00 0.00 0.00 0.00 0.00 0.00 0.00 0.00 0.00 0.00 0.00 0.00 0.00 0.00 0.00 0.00 0.00 0.00 0.00 0.00 0.00
0.01 0.01 0.02 0.02 0.01 0.00 0.01 0.01 0.00 0.00 0.00 0.00 0.00 0.00 0.00 0.00 0.00 0.00 0.00 0.00 0.00 0.00 0.00 0.00 0.00 0.00 0.00 0.00 0.00 0.00 0.00 0.00 0.00 0.00 0.00 0.00 0.00 0.00 0.00 0.00 0.00 0.00 0.00
0.01 0.01 0.02 0.03 0.02 0.01 0.01 0.01 0.01 0.00 0.00 0.00 0.00 0.00 0.00 0.00 0.00 0.00 0.00 0.00 0.00 0.00 0.00 0.00 0.00 0.00 0.00 0.00 0.00 0.00 0.00 0.00 0.00 0.00 0.00 0.00 0.00 0.00 0.00 0.00 0.00 0.00 0.00
0.02 0.02 0.02 0.02 0.03 0.03 0.02 0.01 0.01 0.00 0.00 0.00 0.00 0.00 0.00 0.00 0.00 0.00 0.00 0.00 0.00 0.00 0.00 0.00 0.00 0.00 0.00 0.00 0.00 0.00 0.00 0.00 0.00 0.00 0.00 0.00 0.00 0.00 0.00 0.00 0.00 0.00 0.00
0.02 0.02 0.02 0.02 0.02 0.03 0.02 0.01 0.00 0.00 0.00 0.00 0.00 0.00 0.00 0.00 0.00 0.00 0.00 0.00 0.00 0.00 0.00 0.00 0.00 0.00 0.00 0.00 0.00 0.00 0.00 0.00 0.00 0.00 0.00 0.00 0.00 0.00 0.00 0.00 0.00 0.00 0.00
0.01 0.02 0.02 0.02 0.02 0.02 0.02 0.02 0.01 0.01 0.01 0.00 0.00 0.00 0.00 0.00 0.00 0.00 0.00 0.00 0.00 0.00 0.00 0.00 0.00 0.00 0.00 0.00 0.00 0.00 0.00 0.00 0.00 0.00 0.00 0.00 0.00 0.00 0.00 0.00 0.00 0.00 0.00
0.00 0.01 0.02 0.02 0.02 0.02 0.03 0.02 0.01 0.01 0.00 0.00 0.00 0.00 0.00 0.00 0.00 0.00 0.00 0.00 0.00 0.00 0.00 0.00 0.00 0.00 0.00 0.00 0.00 0.00 0.00 0.00 0.00 0.00 0.00 0.00 0.00 0.00 0.00 0.00 0.00 0.00 0.00
0.00 0.01 0.01 0.02 0.02 0.02 0.03 0.03 0.01 0.01 0.00 0.00 0.00 0.00 0.00 0.00 0.00 0.00 0.00 0.00 0.00 0.00 0.00 0.00 0.00 0.00 0.00 0.00 0.00 0.00 0.00 0.00 0.00 0.00 0.00 0.00 0.00 0.00 0.00 0.00 0.00 0.00 0.00
0.00 0.01 0.01 0.02 0.02 0.02 0.02 0.02 0.02 0.01 0.01 0.00 0.00 0.00 0.00 0.00 0.00 0.00 0.00 0.00 0.00 0.00 0.00 0.00 0.00 0.00 0.00 0.00 0.00 0.00 0.00 0.00 0.00 0.00 0.00 0.00 0.00 0.00 0.00 0.00 0.00 0.00 0.00
MSLP
1007.16 1007.02 1007.07 1007.34 1007.79 1008.36 1008.97 1009.56 1010.08 1010.49 1010.82 1011.10 1011.37 1011.68 1012.05 1012.46 1012.90 1013.32 1013.67 1013.94 1014.12 1014.24 1014.33 1014.45 1014.61 1014.85 1015.15 1015.48 1015.80 1016.07 1016.28 1016.40 1016.46 1016.49 1016.50 1016.53 1016.57 1016.63 1016.68 1016.70 1016.69 1016.63 1016.53
1006.61 1006.56 1006.69 1007.02 1007.51 1008.11 1008.76 1009.40 1009.96 1010.44 1010.83 1011.17 1011.50 1011.85 1012.25 1012.70 1013.16 1013.60 1013.98 1014.28 1014.48 1014.62 1014.73 1014.85 1015.01 1015.22 1015.50 1015.81 1016.11 1016.38 1016.60 1016.75 1016.85 1016.90 1016.93 1016.96 1016.99 1017.02 1017.04 1017.03 1016.99 1016.91 1016.82
1005.99 1006.05 1006.27 1006.66 1007.20 1007.85 1008.56 1009.24 1009.87 1010.41 1010.87 1011.26 1011.64 1012.02 1012.44 1012.89 1013.36 1013.81 1014.21 1014.53 1014.77 1014.95 1015.09 1015.22 1015.38 1015.59 1015.85 1016.13 1016.42 1016.69 1016.92 1017.09 1017.21 1017.29 1017.34 1017.37 1017.38 1017.37 1017.35 1017.30 1017.23 1017.14 1017.05
1005.41 1005.58 1005.89 1006.36 1006.95 1007.65 1008.39 1009.13 1009.81 1010.41 1010.92 1011.37 1011.77 1012.17 1012.59 1013.04 1013.49 1013.93 1014.34 1014.69 1014.97 1015.20 1015.38 1015.55 1015.73 1015.94 1016.19 1016.45 1016.73 1017.00 1017.23 1017.42 1017.57 1017.66 1017.72 1017.74 1017.73 1017.68 1017.61 1017.52 1017.42 1017.32 1017.23
1004.99 1005.28 1005.67 1006.18 1006.82 1007.54 1008.30 1009.06 1009.77 1010.41 1010.97 1011.45 1011.88 1012.29 1012.70 1013.12 1013.56 1013.99 1014.41 1014.78 1015.10 1015.38 1015.62 1015.83 1016.05 1016.27 1016.52 1016.78 1017.05 1017.31 1017.55 1017.75 1017.91 1018.02 1018.07 1018.08 1018.04 1017.95 1017.84 1017.72 1017.59 1017.48 1017.41
1004.81 1005.19 1005.65 1006.20 1006.83 1007.54 1008.29 1009.04 1009.76 1010.42 1011.00 1011.51 1011.96 1012.38 1012.78 1013.19 1013.61 1014.03 1014.45 1014.84 1015.21 1015.53 1015.82 1016.09 1016.33 1016.58 1016.84 1017.10 1017.36 1017.62 1017.87 1018.08 1018.25 1018.36 1018.41 1018.39 1018.32 1018.20 1018.06 1017.91 1017.77 1017.66 1017.60
1004.89 1005.33 1005.83 1006.38 1007.00 1007.66 1008.36 1009.07 1009.76 1010.41 1011.01 1011.54 1012.02 1012.46 1012.87 1013.28 1013.69 1014.11 1014.52 1014.93 1015.32 1015.68 1016.02 1016.32 1016.61 1016.88 1017.14 1017.41 1017.68 1017.94 1018.19 1018.40 1018.57 1018.67 1018.71 1018.68 1018.58 1018.45 1018.28 1018.12 1017.98 1017.89 1017.84
1005.13 1005.64 1006.16 1006.70 1007.26 1007.86 1008.48 1009.12 1009.77 1010.40 1011.00 1011.57 1012.08 1012.56 1013.01 1013.43 1013.85 1014.27 1014.69 1015.10 1015.50 1015.88 1016.23 1016.56 1016.87 1017.16 1017.44 1017.72 1017.99 1018.26 1018.50 1018.71 1018.87 1018.96 1018.99 1018.94 1018.83 1018.68 1018.51 1018.36 1018.24 1018.16 1018.14
1005.44 1006.00 1006.54 1007.06 1007.57 1008.09 1008.62 1009.18 1009.78 1010.39 1011.00 1011.61 1012.18 1012.71 1013.21 1013.68 1014.12 1014.55 1014.96 1015.36 1015.75 1016.13 1016.49 1016.82 1017.14 1017.44 1017.73 1018.01 1018.29 1018.55 1018.79 1019.00 1019.14 1019.22 1019.23 1019.17 1019.05 1018.91 1018.75 1018.62 1018.53 1018.49 1018.50
1005.67 1006.29 1006.86 1007.37 1007.84 1008.29 1008.75 1009.25 1009.80 1010.39 1011.03 1011.67 1012.31 1012.92 1013.48 1014.00 1014.48 1014.91 1015.32 1015.71 1016.08 1016.43 1016.77 1017.09 1017.40 1017.70 1018.00 1018.29 1018.57 1018.83 1019.06 1019.25 1019.38 1019.44 1019.43 1019.36 1019.25 1019.11 1018.98 1018.89 1018.83 1018.84 1018.88
1005.72 1006.42 1007.04 1007.57 1008.03 1008.44 1008.86 1009.31 1009.83 1010.42 1011.08 1011.77 1012.47 1013.15 1013.79 1014.36 1014.87 1015.33 1015.73 1016.10 1016.44 1016.76 1017.06 1017.36 1017.66 1017.95 1018.25 1018.53 1018.81 1019.07 1019.30 1019.47 1019.58 1019.62 1019.59 1019.51 1019.41 1019.29 1019.19 1019.14 1019.13 1019.18 1019.27
1005.55 1006.33 1007.03 1007.61 1008.10 1008.52 1008.93 1009.37 1009.89 1010.49 1011.17 1011.90 1012.66 1013.40 1014.09 1014.71 1015.25 1015.73 1016.13 1016.47 1016.79 1017.07 1017.35 1017.62 1017.90 1018.18 1018.47 1018.76 1019.04 1019.29 1019.50 1019.65 1019.74 1019.76 1019.72 1019.63 1019.53 1019.44 1019.38 1019.37 1019.41 1019.50 1019.62
1005.17 1006.05 1006.84 1007.50 1008.05 1008.52 1008.97 1009.43 1009.97 1010.58 1011.28 1012.05 1012.83 1013.61 1014.33 1014.99 1015.56 1016.04 1016.45 1016.79 1017.09 1017.35 1017.61 1017.86 1018.12 1018.39 1018.68 1018.96 1019.23 1019.48 1019.68 1019.81 1019.88 1019.88 1019.83 1019.74 1019.65 1019.57 1019.55 1019.58 1019.66 1019.79 1019.94
1004.63 1005.61 1006.49 1007.26 1007.90 1008.45 1008.97 1009.49 1010.06 1010.70 1011.41 1012.18 1012.97 1013.75 1014.49 1015.15 1015.74 1016.24 1016.66 1017.01 1017.31 1017.57 1017.82 1018.07 1018.32 1018.59 1018.87 1019.15 1019.42 1019.65 1019.84 1019.96 1020.01 1020.00 1019.94 1019.85 1019.77 1019.72 1019.72 1019.78 1019.90 1020.05 1020.22
1004.04 1005.08 1006.05 1006.91 1007.66 1008.33 1008.94 1009.54 1010.16 1010.83 1011.55 1012.30 1013.06 1013.82 1014.53 1015.19 1015.79 1016.30 1016.75 1017.13 1017.45 1017.74 1018.00 1018.26 1018.52 1018.78 1019.06 1019.33 1019.59 1019.82 1020.00 1020.12 1020.16 1020.14 1020.08 1020.01 1019.94 1019.91 1019.93 1020.01 1020.15 1020.31 1020.48
1003.45 1004.52 1005.54 1006.49 1007.36 1008.14 1008.86 1009.56 1010.25 1010.94 1011.65 1012.37 1013.09 1013.80 1014.48 1015.12 1015.71 1016.25 1016.73 1017.16 1017.53 1017.86 1018.16 1018.43 1018.70 1018.97 1019.24 1019.51 1019.77 1019.99 1020.17 1020.29 1020.34 1020.33 1020.28 1020.22 1020.17 1020.16 1020.19 1020.29 1020.42 1020.58 1020.74
1002.91 1003.96 1005.01 1006.02 1006.98 1007.88 1008.72 1009.52 1010.28 1011.01 1011.71 1012.40 1013.07 1013.72 1014.35 1014.97 1015.56 1016.12 1016.64 1017.13 1017.56 1017.95 1018.29 1018.60 1018.88 1019.16 1019.43 1019.69 1019.94 1020.17 1020.35 1020.48 1020.55 1020.56 1020.54 1020.50 1020.47 1020.48 1020.52 1020.61 1020.74 1020.88 1021.01
1002.41 1003.40 1004.44 1005.49 1006.53 1007.53 1008.49 1009.39 1010.23 1011.00 1011.71 1012.37 1012.98 1013.58 1014.17 1014.75 1015.35 1015.94 1016.51 1017.05 1017.56 1018.00 1018.39 1018.74 1019.04 1019.32 1019.59 1019.85 1020.11 1020.34 1020.54 1020.69 1020.79 1020.84 1020.85 1020.84 1020.84 1020.85 1020.89 1020.97 1021.07 1021.19 1021.29
1001.93 1002.84 1003.84 1004.90 1006.00 1007.09 1008.15 1009.15 1010.07 1010.89 1011.61 1012.25 1012.83 1013.39 1013.94 1014.51 1015.11 1015.72 1016.35 1016.95 1017.51 1018.02 1018.45 1018.83 1019.15 1019.45 1019.72 1019.98 1020.25 1020.50 1020.72 1020.91 1021.05 1021.14 1021.19 1021.21 1021.22 1021.24 1021.27 1021.33 1021.40 1021.48 1021.54
1001.41 1002.24 1003.19 1004.25 1005.38 1006.55 1007.70 1008.79 1009.78 1010.65 1011.40 1012.04 1012.61 1013.14 1013.67 1014.23 1014.83 1015.48 1016.14 1016.79 1017.41 1017.96 1018.43 1018.84 1019.18 1019.49 1019.77 1020.05 1020.34 1020.62 1020.88 1021.11 1021.30 1021.43 1021.52 1021.56 1021.58 1021.60 1021.61 1021.64 1021.68 1021.72 1021.74
1000.85 1001.59 1002.50 1003.55 1004.70 1005.92 1007.14 1008.30 1009.36 1010.29 1011.06 1011.72 1012.28 1012.81 1013.33 1013.90 1014.51 1015.17 1015.87 1016.56 1017.21 1017.79 1018.30 1018.73 1019.09 1019.42 1019.73 1020.04 1020.36 1020.68 1020.99 1021.27 1021.50 1021.68 1021.79 1021.85 1021.88 1021.88 1021.87 1021.86 1021.86 1021.85 1021.84
1000.22 1000.92 1001.79 1002.82 1003.99 1005.24 1006.50 1007.71 1008.82 1009.78 1010.60 1011.27 1011.85 1012.39 1012.92 1013.49 1014.12 1014.80 1015.51 1016.21 1016.88 1017.49 1018.02 1018.47 1018.87 1019.22 1019.57 1019.93 1020.29 1020.66 1021.03 1021.36 1021.63 1021.84 1021.97 1022.04 1022.06 1022.03 1021.99 1021.95 1021.90 1021.86 1021.82
999.55 1000.23 1001.09 1002.12 1003.28 1004.53 1005.81 1007.04 1008.17 1009.16 1010.00 1010.71 1011.31 1011.87 1012.42 1013.01 1013.65 1014.34 1015.05 1015.76 1016.44 1017.05 1017.60 1018.07 1018.50 1018.90 1019.29 1019.70 1020.13 1020.56 1020.97 1021.35 1021.66 1021.89 1022.03 1022.09 1022.09 1022.04 1021.97 1021.88 1021.80 1021.73 1021.66
998.85 999.56 1000.42 1001.44 1002.60 1003.84 1005.10 1006.32 1007.45 1008.45 1009.31 1010.04 1010.68 1011.26 1011.85 1012.45 1013.11 1013.80 1014.51 1015.22 1015.89 1016.50 1017.06 1017.55 1018.01 1018.46 1018.91 1019.38 1019.87 1020.35 1020.81 1021.22 1021.56 1021.80 1021.94 1022.00 1021.97 1021.90 1021.79 1021.67 1021.56 1021.46 1021.38
998.15 998.90 999.79 1000.82 1001.95 1003.16 1004.39 1005.59 1006.70 1007.69 1008.56 1009.32 1009.98 1010.61 1011.22 1011.86 1012.53 1013.22 1013.93 1014.62 1015.28 1015.89 1016.45 1016.97 1017.46 1017.95 1018.45 1018.98 1019.52 1020.05 1020.54 1020.98 1021.33 1021.57 1021.71 1021.75 1021.71 1021.61 1021.49 1021.35 1021.22 1021.10 1021.01
997.45 998.26 999.18 1000.21 1001.33 1002.51 1003.70 1004.85 1005.93 1006.92 1007.79 1008.57 1009.27 1009.94 1010.59 1011.26 1011.95 1012.65 1013.35 1014.04 1014.68 1015.28 1015.84 1016.37 1016.88 1017.41 1017.95 1018.51 1019.09 1019.65 1020.16 1020.61 1020.96 1021.20 1021.33 1021.36 1021.31 1021.21 1021.08 1020.94 1020.80 1020.68 1020.58
Thickness
5769 5771 5771 5770 5769 5768 5766 5765 5764 5762 5761 5759 5758 5757 5756 5755 5754 5753 5752 5750 5748 5747 5745 5744 5742 5740 5739 5738 5736 5734 5732 5730 5729 5727 5726 5725 5723 5721 5720 5718 5717 5716 5715
5774 5771 5769 5767 5766 5765 5764 5762 5761 5759 5758 5756 5755 5754 5753 5752 5751 5750 5748 5747 5745 5743 5741 5739 5738 5736 5734 5733 5732 5730 5728 5725 5724 5722 5721 5720 5719 5717 5716 5714 5713 5712 5710
5771 5768 5766 5764 5763 5762 5760 5759 5757 5756 5754 5753 5752 5751 5750 5749 5748 5746 5745 5743 5741 5739 5737 5735 5733 5732 5730 5729 5728 5726 5723 5721 5719 5717 5716 5715 5714 5713 5711 5709 5708 5706 5705
5766 5764 5762 5760 5759 5758 5757 5755 5753 5752 5751 5750 5748 5747 5746 5745 5744 5743 5741 5739 5737 5735 5733 5731 5729 5727 5726 5725 5723 5721 5719 5716 5714 5712 5711 5710 5709 5708 5707 5705 5703 5701 5699
5760 5759 5757 5756 5755 5754 5753 5751 5750 5748 5747 5746 5744 5743 5742 5741 5740 5739 5737 5735 5733 5731 5728 5726 5724 5723 5721 5720 5719 5717 5714 5712 5710 5708 5706 5705 5705 5703 5702 5699 5697 5695 5693
5754 5753 5752 5751 5750 5749 5748 5747 5745 5744 5743 5742 5740 5739 5738 5737 5736 5734 5732 5730 5728 5726 5724 5722 5720 5719 5717 5716 5714 5712 5709 5707 5705 5703 5702 5701 5700 5698 5696 5694 5692 5689 5687
5748 5747 5746 5746 5745 5744 5743 5742 5741 5740 5739 5738 5736 5735 5734 5733 5731 5729 5727 5725 5724 5722 5720 5718 5716 5714 5713 5711 5709 5707 5705 5702 5700 5698 5697 5695 5695 5693 5691 5688 5686 5683 5680
5743 5742 5740 5740 5739 5739 5737 5737 5736 5735 5734 5733 5732 5731 5730 5728 5726 5725 5723 5721 5719 5717 5715 5713 5712 5710 5708 5707 5705 5702 5700 5697 5695 5693 5692 5691 5689 5688 5685 5682 5679 5676 5673
5736 5736 5735 5734 5733 5733 5732 5731 5731 5730 5729 5728 5727 5726 5725 5723 5722 5720 5718 5716 5715 5713 5711 5709 5707 5706 5704 5702 5700 5697 5695 5692 5690 5688 5687 5685 5684 5682 5679 5676 5672 5669 5666
5728 5729 5729 5728 5728 5727 5726 5726 5725 5724 5724 5723 5722 5721 5719 5718 5717 5715 5713 5712 5710 5708 5706 5704 5703 5701 5699 5697 5695 5692 5690 5687 5685 5683 5681 5680 5678 5676 5672 5669 5665 5662 5658
5719 5721 5722 5722 5722 5721 5721 5720 5719 5718 5718 5717 5716 5715 5714 5713 5712 5710 5708 5707 5705 5703 5701 5700 5698 5696 5694 5692 5690 5687 5685 5682 5680 5678 5676 5674 5672 5669 5666 5662 5658 5655 5651
5714 5715 5716 5716 5716 5715 5715 5714 5713 5713 5712 5712 5711 5709 5708 5707 5706 5704 5703 5702 5700 5699 5697 5695 5693 5692 5690 5687 5685 5682 5679 5677 5675 5672 5670 5668 5666 5663 5659 5655 5651 5648 5644
5714 5712 5712 5711 5711 5710 5710 5709 5708 5707 5706 5706 5705 5704 5703 5702 5700 5699 5698 5696 5695 5693 5692 5690 5688 5686 5685 5682 5680 5677 5674 5671 5669 5667 5664 5662 5659 5656 5652 5648 5644 5640 5636
5708 5708 5708 5707 5706 5705 5705 5704 5702 5702 5701 5700 5699 5699 5698 5696 5695 5694 5692 5691 5690 5688 5687 5685 5683 5681 5679 5677 5674 5672 5669 5666 5663 5661 5658 5655 5652 5649 5645 5641 5637 5633 5629
5704 5704 5704 5703 5702 5701 5700 5698 5698 5697 5696 5696 5695 5694 5694 5692 5690 5689 5687 5686 5685 5684 5682 5680 5678 5676 5674 5672 5669 5667 5663 5660 5657 5655 5652 5649 5645 5642 5638 5635 5630 5626 5622
5701 5701 5701 5699 5698 5697 5696 5695 5694 5693 5692 5691 5691 5690 5689 5688 5686 5684 5683 5681 5680 5679 5677 5675 5673 5671 5669 5667 5664 5661 5658 5655 5651 5648 5645 5642 5638 5635 5631 5627 5623 5619 5615
5699 5699 5698 5697 5695 5693 5692 5691 5690 5689 5688 5688 5687 5686 5685 5684 5682 5681 5679 5677 5676 5675 5673 5671 5668 5666 5663 5661 5658 5655 5652 5649 5645 5642 5639 5635 5631 5628 5624 5620 5616 5611 5607
5694 5695 5694 5694 5692 5691 5689 5687 5686 5686 5685 5684 5684 5683 5682 5681 5679 5677 5675 5674 5673 5671 5669 5666 5663 5660 5657 5654 5652 5649 5646 5642 5639 5635 5632 5628 5625 5621 5616 5612 5608 5604 5600
5691 5692 5691 5692 5690 5689 5687 5684 5683 5682 5682 5682 5681 5680 5679 5678 5676 5674 5672 5671 5669 5667 5664 5662 5658 5655 5651 5648 5645 5642 5639 5636 5633 5629 5625 5622 5618 5614 5610 5605 5601 5596 5592
5687 5689 5689 5689 5687 5685 5682 5680 5679 5678 5678 5679 5679 5678 5677 5675 5673 5671 5669 5667 5665 5663 5660 5657 5653 5650 5646 5642 5639 5635 5631 5629 5626 5623 5619 5616 5612 5607 5603 5598 5594 5589 5585
5681 5683 5685 5685 5684 5682 5681 5680 5679 5678 5677 5677 5677 5676 5675 5673 5671 5669 5667 5664 5662 5660 5656 5653 5648 5644 5639 5636 5630 5625 5623 5621 5619 5616 5613 5609 5605 5601 5596 5592 5587 5583 5578
5678 5681 5683 5684 5684 5683 5684 5684 5682 5678 5676 5675 5673 5673 5672 5671 5669 5667 5665 5662 5659 5656 5652 5649 5645 5639 5634 5631 5625 5618 5614 5611 5611 5610 5606 5603 5599 5595 5590 5586 5581 5577 5572
5676 5680 5682 5684 5684 5684 5683 5679 5675 5671 5668 5668 5669 5671 5671 5670 5668 5666 5663 5660 5657 5654 5650 5646 5642 5637 5630 5625 5623 5617 5608 5605 5603 5602 5600 5597 5593 5589 5585 5580 5576 5571 5566
5676 5680 5682 5683 5684 5683 5681 5678 5676 5675 5674 5676 5674 5672 5669 5668 5666 5664 5661 5658 5655 5651 5648 5643 5639 5634 5629 5621 5617 5615 5611 5606 5599 5595 5592 5590 5587 5583 5579 5575 5570 5566 5561
5673 5677 5680 5681 5681 5681 5680 5679 5677 5676 5676 5673 5669 5666 5665 5664 5663 5661 5659 5655 5652 5649 5645 5641 5635 5631 5626 5621 5615 5610 5605 5599 5595 5590 5586 5583 5579 5578 5574 5570 5565 5560 5556
5668 5672 5675 5676 5678 5679 5678 5678 5677 5676 5673 5669 5667 5665 5663 5661 5660 5659 5656 5653 5650 5647 5643 5638 5633 5628 5623 5618 5613 5608 5603 5597 5592 5586 5581 5576 5573 5571 5569 5564 5560 5555 5550